星链-1131 (STARLINK-1131 )

导读 | 豆包AI

STARLINK-1131是美国太空探索技术公司(SpaceX)星链(Starlink)星座的组网卫星,于2020年1月29日发射升空,隶属于美国的Starlink低轨互联网卫星项目。该卫星主要为全球范围内提供高速低延迟的卫星互联网服务,属于星链早期部署批次卫星,支撑起星链星座初期的全球通信覆盖能力构建。

Basic Information
目录编号:
45047
目录名称:
STARLINK-1131
国际标识:
2020-006D
轨道中心:
EARTH
卫星名称:
星链-1131
卫星全名:
星链-1131 (STARLINK-1131 )
卫星状态:
在轨 (已飞行2236 天)
发射日期:
2020-01-29 UTC
国别 :
美国 (US)
星等 :
--
Orbit Information
数据来源 国际轨道数据 AOE轨道数据
星历时间 2026-03-13T20:28:09+0800
20小时前
查看轨道信息
2026-03-11T17:00:00+0800
2天前
查看轨道信息
半长轴 6853.377km 6853.359km
偏心率 0.0001489 0.0001932
轨道倾角 53.156° 53.155°
近地点辐角 94.835° 52.680°
升交点赤经 263.190° 273.150°
平近点角 265.282° 7.154°
近地点 474.219km 473.897km
远地点 476.261km 476.547km
周期 94.106分钟 94.105分钟
每日圈数 15.301919 15.301979
Detailed Information
固有亮度:
5
最大亮度:
2.5
卫星平台:
Starlink V1.0
覆盖范围:
全球
运营商:
太空探索技术公司
运营商所在国:
美国
制造商(研发单位):
太空探索技术公司
制造商所在国:
美国
使用方式:
暂无
Satellite Introduction
星链(Starlink)计划是由太空探索技术公司(SpaceX)提出的一个巨型低轨卫星互联网星座项目,计划在2019年至2024年间在太空搭建由约1.2万颗卫星组成的“星链”网络,其中1584颗将部署在地球上空550千米处的近地轨道,并从2020年开始工作。该卫星仍在工作。
2D Orbit Map
3D Orbit Map
Orbit Altitude Analysis Chart
Orbit Inclination Analysis Chart
Orbit Comprehensive Analysis Chart
View Comprehensive Chart